Weather in Degtyarka

Russia / Altai Krai     53°20′36″N   79°21′19″E
temp.,
°C
wind,
m/s
gust,
m/s
humid.,
%
clouds,
%
prec.,
mm/h
press.,
hPa
HPBL,
m
24 may, tue
tue2401:00+15se22353 0.0 102011
04:00+13e22360 0.0 102017
07:00+13e36440 0.0 1020124
10:00+20e453263 0.0 1020617
13:00+23ene3425100 0.0 10181430
16:00+25ne5525100 0.0 10171619
19:00+24ne662852 0.0 10171618
22:00+19nne4744100 0.0 1017109
25 may, wed
wed2501:00+17nne4749100 0.0 1017121
04:00+16nne4950100 0.0 1017147
07:00+16ne51148100 0.0 1017242
10:00+22ne6103498 0.0 1016708
13:00+26ne7725100 0.0 10151359
16:00+28ne772185 0.0 10141661
19:00+27ne67244 0.0 10141809
22:00+20ne410423 0.0 1015155
26 may, thu
thu2601:00+18ne410485 0.0 1014180
04:00+16ne49535 0.0 1014142
07:00+17ne495821 0.0 1014217
10:00+23ene6838100 0.0 1013673
13:00+28ene673190 0.0 10121595
16:00+29ene553181 0.0 10102144
19:00+29e44329 0.0 10092395
22:00+23ne512520 0.0 1010343
27 may, fri
fri2701:00+21ene513570 0.0 1009296
04:00+18e510680 0.0 1008194
07:00+18ese47704 0.0 1009175
10:00+24se44470 0.0 1008507
13:00+29sse32353 0.0 10081320
16:00+31sw34270 0.0 10072578
19:00+29wnw75330 0.0 10071726
22:00+23nw6113669 0.0 1009398
28 may, sat
sat2801:00+18nw71157100 0.0 1011469
04:00+14nw5973100 0.0 1011312
07:00+13nw61077100 0.0 1012405
10:00+17nw5559100 0.0 1012867
13:00+21nw4548100 0.0 10111322
16:00+21nw4544100 0.0 10111439
19:00+18nnw6854100 0.0 10111017
22:00+17wnw3663100 0.0 1013466